N1SD KSAN-

Flight info

Callsign N1SD
Flight time N/A
Altitude VFR
Route
Aircraft EC45/L-VGD/C

Departure

Time 2026-04-25 23:14
Airport San Diego International Airport (KSAN)

Arrival

Time N/A
Airport -
Time Latitude Longitude Altitude Speed Heading
2026-04-25 23:11 32.71804 -117.15797 531 ft 0 kts 284°
2026-04-25 23:12 32.71805 -117.15798 534 ft 1 kts 275°
2026-04-25 23:13 32.71817 -117.15951 571 ft 40 kts 282°
2026-04-25 23:13 32.71899 -117.16496 497 ft 90 kts 283°
2026-04-25 23:13 32.72120 -117.17256 476 ft 102 kts 289°
2026-04-25 23:13 32.72449 -117.18024 438 ft 113 kts 307°
2026-04-25 23:14 32.73139 -117.18495 489 ft 119 kts 342°
2026-04-25 23:14 32.73992 -117.18366 490 ft 129 kts 10°
2026-04-25 23:14 32.74776 -117.17918 701 ft 130 kts 28°
2026-04-25 23:14 32.75448 -117.17116 733 ft 139 kts 42°
2026-04-25 23:15 32.76048 -117.16217 695 ft 138 kts 60°
2026-04-25 23:15 32.76475 -117.15202 718 ft 140 kts 59°
2026-04-25 23:15 32.76922 -117.14152 677 ft 144 kts 59°
2026-04-25 23:15 32.77244 -117.13008 602 ft 149 kts 75°
2026-04-25 23:16 32.77666 -117.11905 544 ft 144 kts 51°
2026-04-25 23:16 32.78233 -117.11456 581 ft 57 kts 315°
2026-04-25 23:16 32.78428 -117.11541 345 ft 12 kts 253°
2026-04-25 23:16 32.78420 -117.11644 65 ft 2 kts 251°
2026-04-25 23:17 32.78421 -117.11642 87 ft 2 kts 258°
2026-04-25 23:18 32.78401 -117.11676 340 ft 12 kts 253°
2026-04-25 23:18 32.78372 -117.11993 556 ft 71 kts 248°
2026-04-25 23:18 32.78188 -117.12623 630 ft 88 kts 217°
2026-04-25 23:18 32.77998 -117.13349 655 ft 92 kts 238°
2026-04-25 23:19 32.77881 -117.14127 669 ft 100 kts 224°
2026-04-25 23:19 32.77692 -117.14924 617 ft 99 kts 226°
2026-04-25 23:19 32.77459 -117.15655 616 ft 97 kts 211°
2026-04-25 23:19 32.77057 -117.16370 483 ft 114 kts 204°
2026-04-25 23:20 32.76389 -117.16861 594 ft 110 kts 208°
2026-04-25 23:20 32.75708 -117.17328 565 ft 115 kts 212°
2026-04-25 23:20 32.75134 -117.17869 668 ft 104 kts 214°
2026-04-25 23:20 32.74431 -117.18224 481 ft 114 kts 203°
2026-04-25 23:21 32.73695 -117.18618 490 ft 118 kts 209°
2026-04-25 23:21 32.72927 -117.18525 653 ft 122 kts 145°
2026-04-25 23:21 32.72292 -117.17804 659 ft 138 kts 138°
2026-04-25 23:21 32.71672 -117.16879 732 ft 144 kts 114°
2026-04-25 23:22 32.71414 -117.15979 1130 ft 93 kts 73°
2026-04-25 23:22 32.71448 -117.15604 784 ft 34 kts 297°
2026-04-25 23:22 32.71784 -117.15618 493 ft 40 kts 294°
2026-04-25 23:23 32.71806 -117.15787 526 ft 0 kts 274°
2026-04-25 23:33 32.71804 -117.15795 528 ft 1 kts 282°
2026-04-25 23:34 32.71804 -117.15873 545 ft 32 kts 273°
2026-04-25 23:34 32.71856 -117.16283 579 ft 71 kts 276°
2026-04-25 23:34 32.72004 -117.16963 485 ft 92 kts 293°
2026-04-25 23:34 32.72329 -117.17613 500 ft 95 kts 296°
2026-04-25 23:35 32.72822 -117.18184 413 ft 109 kts 316°
2026-04-25 23:35 32.73531 -117.18599 368 ft 115 kts 325°
2026-04-25 23:35 32.74299 -117.18594 536 ft 113 kts 11°
2026-04-25 23:35 32.74867 -117.17990 828 ft 111 kts 47°
2026-04-25 23:36 32.75300 -117.17219 992 ft 113 kts 58°
2026-04-25 23:36 32.75720 -117.16423 1068 ft 113 kts 56°
2026-04-25 23:36 32.76142 -117.15617 1066 ft 119 kts 54°
2026-04-25 23:36 32.76546 -117.14724 921 ft 125 kts 60°
2026-04-25 23:37 32.76873 -117.13765 747 ft 128 kts 64°
2026-04-25 23:37 32.77220 -117.12820 665 ft 126 kts 59°
2026-04-25 23:37 32.77637 -117.11902 619 ft 120 kts 55°
2026-04-25 23:37 32.78196 -117.11514 335 ft 59 kts 318°
2026-04-25 23:38 32.78380 -117.11563 168 ft 13 kts 298°
2026-04-25 23:38 32.78407 -117.11670 87 ft 2 kts 266°
2026-04-25 23:38 32.78409 -117.11669 63 ft 0 kts 258°
2026-04-25 23:39 32.78411 -117.11677 139 ft 2 kts 258°
2026-04-25 23:39 32.78414 -117.11714 266 ft 13 kts 270°
2026-04-25 23:40 32.78276 -117.12090 393 ft 87 kts 234°
2026-04-25 23:40 32.77860 -117.12793 476 ft 111 kts 239°
2026-04-25 23:40 32.77566 -117.13630 703 ft 109 kts 244°
2026-04-25 23:40 32.77287 -117.14434 887 ft 98 kts 243°
2026-04-25 23:41 32.76742 -117.15011 927 ft 116 kts 218°
2026-04-25 23:41 32.76132 -117.15629 893 ft 115 kts 221°
2026-04-25 23:41 32.75435 -117.16095 827 ft 116 kts 203°
2026-04-25 23:41 32.74709 -117.16473 931 ft 104 kts 202°
2026-04-25 23:42 32.74070 -117.16668 1002 ft 83 kts 202°
2026-04-25 23:42 32.73618 -117.16845 744 ft 62 kts 228°
2026-04-25 23:42 32.73390 -117.17269 415 ft 59 kts 257°
2026-04-25 23:42 32.73260 -117.17659 141 ft 40 kts 288°
2026-04-25 23:43 32.73346 -117.17828 75 ft 7 kts 310°
2026-04-25 23:43 32.73403 -117.17877 49 ft 3 kts 269°
2026-04-25 23:43 32.73416 -117.17879 21 ft 0 kts 249°